Time,TemperatureF,DewpointF,PressureIn,WindDirection,WindDirectionDegrees,WindSpeedMPH,WindSpeedGustMPH,Humidity,HourlyPrecipIn,Conditions,Clouds,dailyrainin,SoftwareType,DateUTC
2013-03-24 00:05:00,57.9,55.3,29.67,NE,37,1.0,6.0,91,0.00,,,0.00,Wunderground v.1.15,2013-03-24 05:05:00,
2013-03-24 00:10:00,57.8,55.2,29.67,NNE,29,1.0,1.0,91,0.00,,,0.00,Wunderground v.1.15,2013-03-24 05:10:00,
2013-03-24 00:15:00,57.6,55.0,29.67,NNW,347,0.0,1.0,91,0.00,,,0.00,Wunderground v.1.15,2013-03-24 05:15:00,
2013-03-24 00:20:00,57.5,54.9,29.66,NNW,347,0.0,1.0,91,0.00,,,0.00,Wunderground v.1.15,2013-03-24 05:20:00,
2013-03-24 00:25:00,57.5,54.9,29.66,West,276,0.0,1.0,91,0.00,,,0.00,Wunderground v.1.15,2013-03-24 05:25:00,
2013-03-24 00:30:00,57.4,55.1,29.66,West,277,0.0,0.0,92,0.00,,,0.00,Wunderground v.1.15,2013-03-24 05:30:00,
2013-03-24 00:36:00,57.4,55.1,29.66,NE,39,0.0,1.0,92,0.00,,,0.00,Wunderground v.1.15,2013-03-24 05:36:00,
2013-03-24 00:42:00,57.4,55.1,29.66,NE,45,0.0,1.0,92,0.00,,,0.00,Wunderground v.1.15,2013-03-24 05:42:00,
2013-03-24 00:47:00,57.5,54.9,29.65,ENE,72,1.0,3.0,91,0.00,,,0.00,Wunderground v.1.15,2013-03-24 05:47:00,
2013-03-24 00:52:00,57.7,55.1,29.65,East,84,2.0,3.0,91,0.00,,,0.00,Wunderground v.1.15,2013-03-24 05:52:00,
2013-03-24 00:57:00,57.8,54.9,29.65,East,96,1.0,4.0,90,0.00,,,0.00,Wunderground v.1.15,2013-03-24 05:57:00,
2013-03-24 01:02:00,57.9,55.0,29.65,East,95,0.0,4.0,90,0.00,,,0.00,Wunderground v.1.15,2013-03-24 06:02:00,
2013-03-24 01:08:00,57.8,54.9,29.65,ENE,64,1.0,4.0,90,0.00,,,0.00,Wunderground v.1.15,2013-03-24 06:08:00,
2013-03-24 01:14:00,57.9,55.0,29.65,ENE,64,1.0,4.0,90,0.00,,,0.00,Wunderground v.1.15,2013-03-24 06:14:00,
2013-03-24 01:20:00,57.8,54.9,29.66,NW,323,0.0,4.0,90,0.00,,,0.00,Wunderground v.1.15,2013-03-24 06:20:00,
2013-03-24 01:25:00,57.8,55.2,29.66,NNE,31,0.0,4.0,91,0.00,,,0.00,Wunderground v.1.15,2013-03-24 06:25:00,
2013-03-24 01:31:00,57.8,54.9,29.65,NNW,338,1.0,4.0,90,0.00,,,0.00,Wunderground v.1.15,2013-03-24 06:31:00,
2013-03-24 01:37:00,57.8,54.9,29.65,NNW,347,1.0,4.0,90,0.00,,,0.00,Wunderground v.1.15,2013-03-24 06:37:00,
2013-03-24 01:43:00,57.7,54.8,29.66,NE,56,1.0,4.0,90,0.00,,,0.00,Wunderground v.1.15,2013-03-24 06:43:00,
2013-03-24 01:48:00,57.7,54.8,29.66,ENE,77,1.0,4.0,90,0.00,,,0.00,Wunderground v.1.15,2013-03-24 06:48:00,
2013-03-24 01:54:00,57.8,54.9,29.66,ENE,75,2.0,4.0,90,0.00,,,0.00,Wunderground v.1.15,2013-03-24 06:54:00,
2013-03-24 01:59:00,57.8,54.6,29.66,East,88,3.0,4.0,89,0.00,,,0.00,Wunderground v.1.15,2013-03-24 06:59:00,
2013-03-24 02:05:00,57.8,54.6,29.67,ENE,71,2.0,4.0,89,0.00,,,0.00,Wunderground v.1.15,2013-03-24 07:05:00,
2013-03-24 02:11:00,57.8,54.6,29.66,ENE,74,2.0,4.0,89,0.00,,,0.00,Wunderground v.1.15,2013-03-24 07:11:00,
2013-03-24 02:16:00,57.8,54.6,29.67,ENE,74,1.0,1.0,89,0.00,,,0.00,Wunderground v.1.15,2013-03-24 07:16:00,
2013-03-24 02:22:00,57.9,55.0,29.67,SW,221,1.0,4.0,90,0.00,,,0.00,Wunderground v.1.15,2013-03-24 07:22:00,
2013-03-24 02:27:00,57.8,54.9,29.67,SW,222,0.0,4.0,90,0.00,,,0.00,Wunderground v.1.15,2013-03-24 07:27:00,
2013-03-24 02:33:00,57.9,55.0,29.67,SW,222,0.0,4.0,90,0.00,,,0.00,Wunderground v.1.15,2013-03-24 07:33:00,
2013-03-24 02:38:00,57.8,54.9,29.66,ESE,123,0.0,4.0,90,0.00,,,0.00,Wunderground v.1.15,2013-03-24 07:38:00,
2013-03-24 02:45:00,57.8,54.9,29.66,ENE,72,2.0,4.0,90,0.00,,,0.00,Wunderground v.1.15,2013-03-24 07:45:00,
2013-03-24 02:50:00,57.9,55.0,29.66,ENE,72,2.0,4.0,90,0.00,,,0.00,Wunderground v.1.15,2013-03-24 07:50:00,
2013-03-24 02:56:00,57.9,55.0,29.65,ENE,77,1.0,4.0,90,0.00,,,0.00,Wunderground v.1.15,2013-03-24 07:56:00,
2013-03-24 03:01:00,57.9,55.0,29.65,ENE,74,1.0,4.0,90,0.00,,,0.00,Wunderground v.1.15,2013-03-24 08:01:00,
2013-03-24 03:07:00,58.0,55.1,29.64,ESE,123,2.0,4.0,90,0.00,,,0.00,Wunderground v.1.15,2013-03-24 08:07:00,
2013-03-24 03:13:00,57.9,54.7,29.64,East,101,1.0,4.0,89,0.00,,,0.00,Wunderground v.1.15,2013-03-24 08:13:00,
2013-03-24 03:18:00,57.9,55.0,29.64,SE,137,1.0,4.0,90,0.00,,,0.00,Wunderground v.1.15,2013-03-24 08:18:00,
2013-03-24 03:24:00,57.9,55.0,29.65,SSW,207,1.0,4.0,90,0.00,,,0.00,Wunderground v.1.15,2013-03-24 08:24:00,
2013-03-24 03:29:00,58.0,55.1,29.65,SW,217,0.0,4.0,90,0.00,,,0.00,Wunderground v.1.15,2013-03-24 08:29:00,
2013-03-24 03:35:00,57.9,55.0,29.64,East,94,0.0,4.0,90,0.00,,,0.00,Wunderground v.1.15,2013-03-24 08:35:00,
2013-03-24 03:40:00,57.9,55.0,29.63,ESE,113,1.0,4.0,90,0.00,,,0.00,Wunderground v.1.15,2013-03-24 08:40:00,
2013-03-24 03:45:00,57.9,55.0,29.63,East,98,2.0,4.0,90,0.00,,,0.00,Wunderground v.1.15,2013-03-24 08:45:00,
2013-03-24 03:51:00,58.0,55.4,29.69,WNW,282,2.0,4.0,91,0.00,,,0.00,Wunderground v.1.15,2013-03-24 08:51:00,
2013-03-24 03:56:00,57.9,55.3,29.68,NW,305,2.0,2.0,91,0.00,,,0.00,Wunderground v.1.15,2013-03-24 08:56:00,
2013-03-24 04:01:00,58.0,55.4,29.67,NNE,27,2.0,4.0,91,0.00,,,0.00,Wunderground v.1.15,2013-03-24 09:01:00,
2013-03-24 04:07:00,58.0,55.4,29.66,NW,305,1.0,4.0,91,0.00,,,0.00,Wunderground v.1.15,2013-03-24 09:07:00,
2013-03-24 04:12:00,57.8,55.2,29.65,NE,45,0.0,4.0,91,0.00,,,0.00,Wunderground v.1.15,2013-03-24 09:12:00,
2013-03-24 04:18:00,57.5,54.9,29.66,WNW,297,1.0,4.0,91,0.00,,,0.00,Wunderground v.1.15,2013-03-24 09:18:00,
2013-03-24 04:23:00,57.3,54.7,29.66,WSW,238,1.0,4.0,91,0.00,,,0.00,Wunderground v.1.15,2013-03-24 09:23:00,
2013-03-24 04:28:00,57.2,54.9,29.67,West,259,1.0,4.0,92,0.00,,,0.00,Wunderground v.1.15,2013-03-24 09:28:00,
2013-03-24 04:34:00,57.2,54.9,29.67,WNW,285,0.0,4.0,92,0.00,,,0.00,Wunderground v.1.15,2013-03-24 09:34:00,
2013-03-24 04:40:00,57.2,54.9,29.68,West,278,1.0,5.0,92,0.00,,,0.00,Wunderground v.1.15,2013-03-24 09:40:00,
2013-03-24 04:45:00,57.2,54.9,29.68,WNW,302,1.0,5.0,92,0.00,,,0.00,Wunderground v.1.15,2013-03-24 09:45:00,
2013-03-24 04:51:00,57.2,54.9,29.68,WNW,288,2.0,4.0,92,0.00,,,0.00,Wunderground v.1.15,2013-03-24 09:51:00,
2013-03-24 04:56:00,57.2,54.6,29.68,NW,324,2.0,2.0,91,0.00,,,0.00,Wunderground v.1.15,2013-03-24 09:56:00,
2013-03-24 05:01:00,57.2,54.9,29.69,NW,310,2.0,4.0,92,0.00,,,0.00,Wunderground v.1.15,2013-03-24 10:01:00,
2013-03-24 05:07:00,57.2,54.9,29.70,WNW,300,2.0,4.0,92,0.00,,,0.00,Wunderground v.1.15,2013-03-24 10:07:00,
2013-03-24 05:12:00,57.2,54.9,29.70,WNW,284,2.0,4.0,92,0.00,,,0.00,Wunderground v.1.15,2013-03-24 10:12:00,
2013-03-24 05:17:00,57.2,54.9,29.70,WNW,293,2.0,4.0,92,0.00,,,0.00,Wunderground v.1.15,2013-03-24 10:17:00,
2013-03-24 05:23:00,57.1,54.8,29.71,NW,309,2.0,4.0,92,0.00,,,0.00,Wunderground v.1.15,2013-03-24 10:23:00,
2013-03-24 05:28:00,57.1,54.8,29.71,WNW,300,3.0,5.0,92,0.00,,,0.00,Wunderground v.1.15,2013-03-24 10:28:00,
2013-03-24 05:35:00,57.2,54.9,29.71,NNW,330,2.0,5.0,92,0.00,,,0.00,Wunderground v.1.15,2013-03-24 10:35:00,
2013-03-24 05:40:00,57.1,54.5,29.71,WNW,288,3.0,6.0,91,0.00,,,0.00,Wunderground v.1.15,2013-03-24 10:40:00,
2013-03-24 05:46:00,57.1,54.5,29.72,WNW,289,3.0,4.0,91,0.00,,,0.00,Wunderground v.1.15,2013-03-24 10:46:00,
2013-03-24 05:52:00,57.1,54.5,29.72,WNW,297,3.0,6.0,91,0.00,,,0.00,Wunderground v.1.15,2013-03-24 10:52:00,
2013-03-24 05:57:00,57.1,54.5,29.72,WNW,288,4.0,7.0,91,0.00,,,0.00,Wunderground v.1.15,2013-03-24 10:57:00,
2013-03-24 06:03:00,57.0,54.4,29.72,NW,306,4.0,7.0,91,0.00,,,0.00,Wunderground v.1.15,2013-03-24 11:03:00,
2013-03-24 06:08:00,57.0,54.4,29.74,West,264,3.0,7.0,91,0.00,,,0.00,Wunderground v.1.15,2013-03-24 11:08:00,
2013-03-24 06:13:00,57.0,54.4,29.75,WNW,291,4.0,9.0,91,0.00,,,0.00,Wunderground v.1.15,2013-03-24 11:13:00,
2013-03-24 06:19:00,57.0,54.4,29.75,NNE,30,5.0,6.0,91,0.00,,,0.00,Wunderground v.1.15,2013-03-24 11:19:00,
2013-03-24 06:24:00,57.0,54.4,29.75,West,261,4.0,6.0,91,0.00,,,0.00,Wunderground v.1.15,2013-03-24 11:24:00,
2013-03-24 06:30:00,56.9,54.3,29.76,ENE,75,3.0,4.0,91,0.00,,,0.00,Wunderground v.1.15,2013-03-24 11:30:00,
2013-03-24 06:35:00,56.8,54.2,29.76,NNW,338,3.0,4.0,91,0.00,,,0.00,Wunderground v.1.15,2013-03-24 11:35:00,
2013-03-24 06:40:00,56.5,53.9,29.76,WNW,285,3.0,7.0,91,0.00,,,0.00,Wunderground v.1.15,2013-03-24 11:40:00,
2013-03-24 06:46:00,56.2,53.6,29.76,NNE,18,4.0,4.0,91,0.00,,,0.00,Wunderground v.1.15,2013-03-24 11:46:00,
2013-03-24 06:51:00,56.1,53.5,29.77,WNW,302,5.0,7.0,91,0.00,,,0.00,Wunderground v.1.15,2013-03-24 11:51:00,
2013-03-24 06:57:00,55.9,53.3,29.77,West,264,5.0,5.0,91,0.00,,,0.00,Wunderground v.1.15,2013-03-24 11:57:00,
2013-03-24 07:02:00,55.7,53.1,29.77,WNW,290,5.0,5.0,91,0.00,,,0.00,Wunderground v.1.15,2013-03-24 12:02:00,
2013-03-24 07:08:00,55.3,52.7,29.77,NW,305,4.0,10.0,91,0.00,,,0.00,Wunderground v.1.15,2013-03-24 12:08:00,
2013-03-24 07:14:00,54.8,52.2,29.78,WNW,283,5.0,10.0,91,0.00,,,0.00,Wunderground v.1.15,2013-03-24 12:14:00,
2013-03-24 07:20:00,54.5,51.6,29.79,West,276,5.0,7.0,90,0.00,,,0.00,Wunderground v.1.15,2013-03-24 12:20:00,
2013-03-24 07:25:00,54.3,51.4,29.79,West,278,6.0,7.0,90,0.00,,,0.00,Wunderground v.1.15,2013-03-24 12:25:00,
2013-03-24 07:30:00,54.2,51.3,29.79,NW,311,6.0,6.0,90,0.00,,,0.00,Wunderground v.1.15,2013-03-24 12:30:00,
2013-03-24 07:35:00,54.2,51.3,29.79,WNW,295,4.0,8.0,90,0.00,,,0.00,Wunderground v.1.15,2013-03-24 12:35:00,
2013-03-24 07:40:00,54.1,51.2,29.79,West,280,4.0,7.0,90,0.00,,,0.00,Wunderground v.1.15,2013-03-24 12:40:00,
2013-03-24 07:46:00,54.2,51.3,29.79,NW,319,3.0,3.0,90,0.00,,,0.00,Wunderground v.1.15,2013-03-24 12:46:00,
2013-03-24 07:51:00,54.2,51.3,29.79,NW,305,2.0,4.0,90,0.00,,,0.00,Wunderground v.1.15,2013-03-24 12:51:00,
2013-03-24 07:58:00,54.3,51.7,29.79,NW,319,2.0,4.0,91,0.00,,,0.00,Wunderground v.1.15,2013-03-24 12:58:00,
2013-03-24 08:03:00,54.4,51.5,29.79,NW,310,2.0,4.0,90,0.00,,,0.00,Wunderground v.1.15,2013-03-24 13:03:00,
2013-03-24 08:09:00,54.4,51.5,29.79,WNW,293,2.0,5.0,90,0.00,,,0.00,Wunderground v.1.15,2013-03-24 13:09:00,
2013-03-24 08:15:00,54.5,51.6,29.80,NW,310,3.0,6.0,90,0.00,,,0.00,Wunderground v.1.15,2013-03-24 13:15:00,
2013-03-24 08:20:00,54.5,51.6,29.80,West,281,4.0,5.0,90,0.00,,,0.00,Wunderground v.1.15,2013-03-24 13:20:00,
2013-03-24 08:26:00,54.9,51.7,29.81,WNW,293,4.0,4.0,89,0.00,,,0.00,Wunderground v.1.15,2013-03-24 13:26:00,
2013-03-24 08:32:00,55.0,51.8,29.81,West,276,3.0,9.0,89,0.00,,,0.00,Wunderground v.1.15,2013-03-24 13:32:00,
2013-03-24 08:38:00,55.2,51.7,29.82,West,267,3.0,4.0,88,0.00,,,0.00,Wunderground v.1.15,2013-03-24 13:38:00,
2013-03-24 08:43:00,55.4,51.6,29.82,NW,306,4.0,6.0,87,0.00,,,0.00,Wunderground v.1.15,2013-03-24 13:43:00,
2013-03-24 08:48:00,55.3,51.2,29.82,NW,304,4.0,6.0,86,0.00,,,0.00,Wunderground v.1.15,2013-03-24 13:48:00,
2013-03-24 08:54:00,55.3,51.2,29.83,West,280,4.0,7.0,86,0.00,,,0.00,Wunderground v.1.15,2013-03-24 13:54:00,
2013-03-24 08:59:00,55.0,49.9,29.83,West,271,5.0,8.0,83,0.00,,,0.00,Wunderground v.1.15,2013-03-24 13:59:00,
2013-03-24 09:05:00,54.9,49.5,29.83,West,274,6.0,11.0,82,0.00,,,0.00,Wunderground v.1.15,2013-03-24 14:05:00,
2013-03-24 09:10:00,54.8,49.1,29.83,WNW,290,5.0,6.0,81,0.00,,,0.00,Wunderground v.1.15,2013-03-24 14:10:00,
2013-03-24 09:16:00,54.8,49.4,29.84,WSW,246,5.0,5.0,82,0.00,,,0.00,Wunderground v.1.15,2013-03-24 14:16:00,
2013-03-24 09:21:00,54.7,48.6,29.84,WNW,283,5.0,10.0,80,0.00,,,0.00,Wunderground v.1.15,2013-03-24 14:21:00,
2013-03-24 09:27:00,54.5,48.1,29.84,SW,218,6.0,6.0,79,0.00,,,0.00,Wunderground v.1.15,2013-03-24 14:27:00,
2013-03-24 09:32:00,54.5,48.1,29.84,WNW,288,5.0,7.0,79,0.00,,,0.00,Wunderground v.1.15,2013-03-24 14:32:00,
2013-03-24 09:37:00,54.5,48.1,29.85,West,267,5.0,5.0,79,0.00,,,0.00,Wunderground v.1.15,2013-03-24 14:37:00,
2013-03-24 09:43:00,54.6,47.9,29.85,WNW,293,6.0,12.0,78,0.00,,,0.00,Wunderground v.1.15,2013-03-24 14:43:00,
2013-03-24 09:48:00,54.5,47.1,29.86,NNW,327,6.0,7.0,76,0.00,,,0.00,Wunderground v.1.15,2013-03-24 14:48:00,
2013-03-24 09:53:00,54.5,46.0,29.85,WNW,283,7.0,7.0,73,0.00,,,0.00,Wunderground v.1.15,2013-03-24 14:53:00,
2013-03-24 09:59:00,54.8,46.3,29.86,NW,307,7.0,16.0,73,0.00,,,0.00,Wunderground v.1.15,2013-03-24 14:59:00,
2013-03-24 10:04:00,55.2,46.3,29.86,WNW,293,6.0,16.0,72,0.00,,,0.00,Wunderground v.1.15,2013-03-24 15:04:00,
2013-03-24 10:10:00,55.3,45.3,29.86,West,274,8.0,14.0,69,0.00,,,0.00,Wunderground v.1.15,2013-03-24 15:10:00,
2013-03-24 10:15:00,55.5,45.5,29.86,West,281,7.0,14.0,69,0.00,,,0.00,Wunderground v.1.15,2013-03-24 15:15:00,
2013-03-24 10:21:00,55.9,45.9,29.86,WSW,246,6.0,7.0,69,0.00,,,0.00,Wunderground v.1.15,2013-03-24 15:21:00,
2013-03-24 10:27:00,56.1,46.1,29.86,West,262,6.0,17.0,69,0.00,,,0.00,Wunderground v.1.15,2013-03-24 15:27:00,
2013-03-24 10:32:00,56.3,45.9,29.87,WNW,293,6.0,17.0,68,0.00,,,0.00,Wunderground v.1.15,2013-03-24 15:32:00,
2013-03-24 10:38:00,56.4,46.7,29.87,NW,311,7.0,7.0,70,0.00,,,0.00,Wunderground v.1.15,2013-03-24 15:38:00,
2013-03-24 10:43:00,56.6,44.1,29.88,West,267,7.0,10.0,63,0.00,,,0.00,Wunderground v.1.15,2013-03-24 15:43:00,
2013-03-24 10:49:00,56.6,44.6,29.88,WNW,285,6.0,10.0,64,0.00,,,0.00,Wunderground v.1.15,2013-03-24 15:49:00,
2013-03-24 10:54:00,56.5,43.6,29.88,West,278,7.0,15.0,62,0.00,,,0.00,Wunderground v.1.15,2013-03-24 15:54:00,
2013-03-24 10:59:00,56.6,43.7,29.88,NW,319,7.0,11.0,62,0.00,,,0.00,Wunderground v.1.15,2013-03-24 15:59:00,
2013-03-24 11:05:00,56.7,43.8,29.89,WNW,288,6.0,11.0,62,0.00,,,0.00,Wunderground v.1.15,2013-03-24 16:05:00,
2013-03-24 11:11:00,56.6,43.3,29.89,NW,312,6.0,10.0,61,0.00,,,0.00,Wunderground v.1.15,2013-03-24 16:11:00,
2013-03-24 11:16:00,56.4,44.0,29.89,WNW,293,7.0,11.0,63,0.00,,,0.00,Wunderground v.1.15,2013-03-24 16:16:00,
2013-03-24 11:21:00,56.4,43.5,29.89,West,276,8.0,12.0,62,0.00,,,0.00,Wunderground v.1.15,2013-03-24 16:21:00,
2013-03-24 11:26:00,56.7,44.2,29.90,WNW,283,8.0,8.0,63,0.00,,,0.00,Wunderground v.1.15,2013-03-24 16:26:00,
2013-03-24 11:32:00,57.3,44.4,29.90,West,264,5.0,8.0,62,0.00,,,0.00,Wunderground v.1.15,2013-03-24 16:32:00,
2013-03-24 11:37:00,57.8,44.4,29.90,NNE,33,5.0,5.0,61,0.00,,,0.00,Wunderground v.1.15,2013-03-24 16:37:00,
2013-03-24 11:43:00,58.2,45.7,29.90,NW,309,4.0,6.0,63,0.00,,,0.00,Wunderground v.1.15,2013-03-24 16:43:00,
2013-03-24 11:49:00,57.6,43.8,29.90,NW,326,6.0,8.0,60,0.00,,,0.00,Wunderground v.1.15,2013-03-24 16:49:00,
2013-03-24 11:55:00,57.0,43.2,29.90,West,276,7.0,20.0,60,0.00,,,0.00,Wunderground v.1.15,2013-03-24 16:55:00,
2013-03-24 12:00:00,56.9,41.8,29.90,West,270,8.0,10.0,57,0.00,,,0.00,Wunderground v.1.15,2013-03-24 17:00:00,
2013-03-24 12:05:00,57.3,41.7,29.91,WNW,294,7.0,10.0,56,0.00,,,0.00,Wunderground v.1.15,2013-03-24 17:05:00,
2013-03-24 12:11:00,56.8,40.8,29.91,WNW,288,7.0,10.0,55,0.00,,,0.00,Wunderground v.1.15,2013-03-24 17:11:00,
2013-03-24 12:16:00,56.6,41.5,29.91,West,277,7.0,7.0,57,0.00,,,0.00,Wunderground v.1.15,2013-03-24 17:16:00,
2013-03-24 12:21:00,57.4,40.4,29.91,WNW,295,6.0,10.0,53,0.00,,,0.00,Wunderground v.1.15,2013-03-24 17:21:00,
2013-03-24 12:27:00,56.9,39.9,29.91,West,280,6.0,9.0,53,0.00,,,0.00,Wunderground v.1.15,2013-03-24 17:27:00,
2013-03-24 12:32:00,56.5,38.6,29.92,WNW,295,7.0,11.0,51,0.00,,,0.00,Wunderground v.1.15,2013-03-24 17:32:00,
2013-03-24 12:38:00,56.3,38.4,29.92,NW,312,8.0,11.0,51,0.00,,,0.00,Wunderground v.1.15,2013-03-24 17:38:00,
2013-03-24 12:43:00,56.4,39.0,29.92,WNW,295,7.0,11.0,52,0.00,,,0.00,Wunderground v.1.15,2013-03-24 17:43:00,
2013-03-24 12:49:00,56.6,38.7,29.92,WNW,302,7.0,10.0,51,0.00,,,0.00,Wunderground v.1.15,2013-03-24 17:49:00,
2013-03-24 12:54:00,56.3,37.4,29.92,WNW,298,8.0,10.0,49,0.00,,,0.00,Wunderground v.1.15,2013-03-24 17:54:00,
2013-03-24 13:00:00,56.7,37.2,29.92,NW,322,8.0,16.0,48,0.00,,,0.00,Wunderground v.1.15,2013-03-24 18:00:00,
2013-03-24 13:05:00,56.3,36.8,29.92,WNW,285,7.0,16.0,48,0.00,,,0.00,Wunderground v.1.15,2013-03-24 18:05:00,
2013-03-24 13:10:00,56.4,37.5,29.92,WNW,288,7.0,16.0,49,0.00,,,0.00,Wunderground v.1.15,2013-03-24 18:10:00,
2013-03-24 13:16:00,56.3,37.4,29.92,WSW,251,7.0,7.0,49,0.00,,,0.00,Wunderground v.1.15,2013-03-24 18:16:00,
2013-03-24 13:21:00,56.4,38.0,29.92,South,191,6.0,16.0,50,0.00,,,0.00,Wunderground v.1.15,2013-03-24 18:21:00,
2013-03-24 13:27:00,56.9,37.4,29.92,WNW,291,6.0,16.0,48,0.00,,,0.00,Wunderground v.1.15,2013-03-24 18:27:00,
2013-03-24 13:32:00,57.0,37.5,29.92,WSW,245,6.0,16.0,48,0.00,,,0.00,Wunderground v.1.15,2013-03-24 18:32:00,
2013-03-24 13:37:00,56.7,37.2,29.92,WNW,290,6.0,16.0,48,0.00,,,0.00,Wunderground v.1.15,2013-03-24 18:37:00,
2013-03-24 13:43:00,56.1,37.2,29.92,WNW,287,7.0,16.0,49,0.00,,,0.00,Wunderground v.1.15,2013-03-24 18:43:00,
2013-03-24 13:48:00,56.5,37.6,29.92,East,89,6.0,16.0,49,0.00,,,0.00,Wunderground v.1.15,2013-03-24 18:48:00,
2013-03-24 13:54:00,56.9,37.4,29.92,WNW,289,5.0,16.0,48,0.00,,,0.00,Wunderground v.1.15,2013-03-24 18:54:00,
2013-03-24 14:00:00,56.9,38.4,29.91,WNW,293,6.0,16.0,50,0.00,,,0.00,Wunderground v.1.15,2013-03-24 19:00:00,
2013-03-24 14:05:00,56.9,37.4,29.92,WNW,283,6.0,16.0,48,0.00,,,0.00,Wunderground v.1.15,2013-03-24 19:05:00,
2013-03-24 14:10:00,57.1,38.1,29.92,WSW,248,6.0,16.0,49,0.00,,,0.00,Wunderground v.1.15,2013-03-24 19:10:00,
2013-03-24 14:17:00,57.0,37.5,29.91,NW,319,5.0,16.0,48,0.00,,,0.00,Wunderground v.1.15,2013-03-24 19:17:00,
2013-03-24 14:23:00,56.9,36.3,29.91,WSW,245,6.0,16.0,46,0.00,,,0.00,Wunderground v.1.15,2013-03-24 19:23:00,
2013-03-24 14:28:00,56.8,36.2,29.91,NNW,333,6.0,16.0,46,0.00,,,0.00,Wunderground v.1.15,2013-03-24 19:28:00,
2013-03-24 14:33:00,57.2,36.6,29.91,WNW,302,6.0,16.0,46,0.00,,,0.00,Wunderground v.1.15,2013-03-24 19:33:00,
2013-03-24 14:40:00,57.0,35.9,29.92,NNW,335,6.0,16.0,45,0.00,,,0.00,Wunderground v.1.15,2013-03-24 19:40:00,
2013-03-24 14:45:00,57.0,36.4,29.91,WNW,302,6.0,16.0,46,0.00,,,0.00,Wunderground v.1.15,2013-03-24 19:45:00,
2013-03-24 14:50:00,57.3,37.2,29.91,West,276,5.0,16.0,47,0.00,,,0.00,Wunderground v.1.15,2013-03-24 19:50:00,
2013-03-24 14:56:00,56.8,35.7,29.91,WNW,284,6.0,16.0,45,0.00,,,0.00,Wunderground v.1.15,2013-03-24 19:56:00,
2013-03-24 15:01:00,57.4,37.9,29.91,NW,320,6.0,16.0,48,0.00,,,0.00,Wunderground v.1.15,2013-03-24 20:01:00,
2013-03-24 15:06:00,56.9,35.8,29.91,West,280,7.0,7.0,45,0.00,,,0.00,Wunderground v.1.15,2013-03-24 20:06:00,
2013-03-24 15:12:00,56.8,36.8,29.91,NW,308,8.0,16.0,47,0.00,,,0.00,Wunderground v.1.15,2013-03-24 20:12:00,
2013-03-24 15:18:00,57.5,36.3,29.91,WSW,256,5.0,16.0,45,0.00,,,0.00,Wunderground v.1.15,2013-03-24 20:18:00,
2013-03-24 15:23:00,58.0,37.3,29.91,NW,322,4.0,16.0,46,0.00,,,0.00,Wunderground v.1.15,2013-03-24 20:23:00,
2013-03-24 15:30:00,58.7,36.2,29.91,West,280,4.0,16.0,43,0.00,,,0.00,Wunderground v.1.15,2013-03-24 20:30:00,
2013-03-24 15:35:00,58.4,36.0,29.91,WNW,302,4.0,16.0,43,0.00,,,0.00,Wunderground v.1.15,2013-03-24 20:35:00,
2013-03-24 15:40:00,57.8,34.8,29.91,North,356,6.0,16.0,42,0.00,,,0.00,Wunderground v.1.15,2013-03-24 20:40:00,
2013-03-24 15:45:00,57.8,34.2,29.91,NNW,335,7.0,16.0,41,0.00,,,0.00,Wunderground v.1.15,2013-03-24 20:45:00,
2013-03-24 15:50:00,57.3,34.4,29.90,WNW,293,7.0,16.0,42,0.00,,,0.00,Wunderground v.1.15,2013-03-24 20:50:00,
2013-03-24 15:55:00,56.8,34.5,29.91,WNW,300,8.0,18.0,43,0.00,,,0.00,Wunderground v.1.15,2013-03-24 20:55:00,
2013-03-24 16:00:00,56.8,34.5,29.91,NW,312,8.0,16.0,43,0.00,,,0.00,Wunderground v.1.15,2013-03-24 21:00:00,
2013-03-24 16:06:00,57.2,34.9,29.90,NNW,337,6.0,6.0,43,0.00,,,0.00,Wunderground v.1.15,2013-03-24 21:06:00,
2013-03-24 16:11:00,57.3,35.6,29.90,WNW,289,5.0,16.0,44,0.00,,,0.00,Wunderground v.1.15,2013-03-24 21:11:00,
2013-03-24 16:17:00,57.4,35.6,29.90,WNW,288,5.0,16.0,44,0.00,,,0.00,Wunderground v.1.15,2013-03-24 21:17:00,
2013-03-24 16:23:00,57.1,34.2,29.91,WNW,285,5.0,16.0,42,0.00,,,0.00,Wunderground v.1.15,2013-03-24 21:23:00,
2013-03-24 16:28:00,57.0,35.3,29.91,NW,305,6.0,16.0,44,0.00,,,0.00,Wunderground v.1.15,2013-03-24 21:28:00,
2013-03-24 16:34:00,57.0,34.7,29.91,NNE,32,6.0,16.0,43,0.00,,,0.00,Wunderground v.1.15,2013-03-24 21:34:00,
2013-03-24 16:40:00,57.0,34.7,29.92,NW,319,5.0,16.0,43,0.00,,,0.00,Wunderground v.1.15,2013-03-24 21:40:00,
2013-03-24 16:45:00,56.6,34.3,29.91,WNW,295,6.0,16.0,43,0.00,,,0.00,Wunderground v.1.15,2013-03-24 21:45:00,
2013-03-24 16:50:00,56.9,34.6,29.91,West,277,6.0,16.0,43,0.00,,,0.00,Wunderground v.1.15,2013-03-24 21:50:00,
2013-03-24 16:57:00,56.7,34.4,29.91,ESE,114,5.0,16.0,43,0.00,,,0.00,Wunderground v.1.15,2013-03-24 21:57:00,
2013-03-24 17:02:00,56.5,33.1,29.91,WNW,283,6.0,16.0,41,0.00,,,0.00,Wunderground v.1.15,2013-03-24 22:02:00,
2013-03-24 17:07:00,56.1,32.7,29.91,West,271,8.0,16.0,41,0.00,,,0.00,Wunderground v.1.15,2013-03-24 22:07:00,
2013-03-24 17:12:00,55.9,34.3,29.91,West,271,8.0,16.0,44,0.00,,,0.00,Wunderground v.1.15,2013-03-24 22:12:00,
2013-03-24 17:18:00,55.9,33.7,29.92,WNW,284,6.0,16.0,43,0.00,,,0.00,Wunderground v.1.15,2013-03-24 22:18:00,
2013-03-24 17:23:00,55.6,33.4,29.92,WNW,285,6.0,16.0,43,0.00,,,0.00,Wunderground v.1.15,2013-03-24 22:23:00,
2013-03-24 17:30:00,55.3,33.7,29.93,NE,46,8.0,16.0,44,0.00,,,0.00,Wunderground v.1.15,2013-03-24 22:30:00,
2013-03-24 17:35:00,54.9,33.4,29.93,WNW,284,8.0,16.0,44,0.00,,,0.00,Wunderground v.1.15,2013-03-24 22:35:00,
2013-03-24 17:41:00,54.8,33.3,29.92,NW,304,7.0,16.0,44,0.00,,,0.00,Wunderground v.1.15,2013-03-24 22:41:00,
2013-03-24 17:46:00,54.8,33.8,29.93,WNW,302,6.0,6.0,45,0.00,,,0.00,Wunderground v.1.15,2013-03-24 22:46:00,
2013-03-24 17:51:00,54.7,33.2,29.93,West,277,5.0,16.0,44,0.00,,,0.00,Wunderground v.1.15,2013-03-24 22:51:00,
2013-03-24 17:57:00,54.3,33.9,29.93,NW,314,6.0,16.0,46,0.00,,,0.00,Wunderground v.1.15,2013-03-24 22:57:00,
2013-03-24 18:02:00,54.2,33.9,29.93,WNW,300,6.0,16.0,46,0.00,,,0.00,Wunderground v.1.15,2013-03-24 23:02:00,
2013-03-24 18:08:00,53.9,33.6,29.93,WNW,295,7.0,16.0,46,0.00,,,0.00,Wunderground v.1.15,2013-03-24 23:08:00,
2013-03-24 18:13:00,54.0,34.7,29.94,WNW,284,6.0,16.0,48,0.00,,,0.00,Wunderground v.1.15,2013-03-24 23:13:00,
2013-03-24 18:20:00,53.8,34.0,29.94,West,280,6.0,16.0,47,0.00,,,0.00,Wunderground v.1.15,2013-03-24 23:20:00,
2013-03-24 18:25:00,53.6,34.4,29.94,WNW,288,6.0,16.0,48,0.00,,,0.00,Wunderground v.1.15,2013-03-24 23:25:00,
2013-03-24 18:30:00,53.4,34.2,29.94,NW,305,5.0,16.0,48,0.00,,,0.00,Wunderground v.1.15,2013-03-24 23:30:00,
2013-03-24 18:35:00,53.2,34.0,29.94,NE,37,5.0,16.0,48,0.00,,,0.00,Wunderground v.1.15,2013-03-24 23:35:00,
2013-03-24 18:40:00,53.0,33.8,29.95,NW,305,5.0,16.0,48,0.00,,,0.00,Wunderground v.1.15,2013-03-24 23:40:00,
2013-03-24 18:46:00,52.7,33.0,29.94,NNW,330,5.0,5.0,47,0.00,,,0.00,Wunderground v.1.15,2013-03-24 23:46:00,
2013-03-24 18:51:00,52.4,32.7,29.95,WNW,302,5.0,16.0,47,0.00,,,0.00,Wunderground v.1.15,2013-03-24 23:51:00,
2013-03-24 18:57:00,52.0,32.4,29.95,NNW,330,5.0,16.0,47,0.00,,,0.00,Wunderground v.1.15,2013-03-24 23:57:00,
2013-03-24 19:02:00,51.7,32.1,29.95,WNW,300,5.0,16.0,47,0.00,,,0.00,Wunderground v.1.15,2013-03-25 00:02:00,
2013-03-24 19:07:00,51.5,33.0,29.95,NW,323,5.0,16.0,49,0.00,,,0.00,Wunderground v.1.15,2013-03-25 00:07:00,
2013-03-24 19:12:00,51.3,32.8,29.96,WNW,297,4.0,16.0,49,0.00,,,0.00,Wunderground v.1.15,2013-03-25 00:12:00,
2013-03-24 19:17:00,51.0,33.0,29.97,West,280,3.0,16.0,50,0.00,,,0.00,Wunderground v.1.15,2013-03-25 00:17:00,
2013-03-24 19:23:00,50.8,32.8,29.97,WNW,289,4.0,16.0,50,0.00,,,0.00,Wunderground v.1.15,2013-03-25 00:23:00,
2013-03-24 19:28:00,50.6,33.1,29.97,NW,319,5.0,16.0,51,0.00,,,0.00,Wunderground v.1.15,2013-03-25 00:28:00,
2013-03-24 19:35:00,50.4,32.9,29.97,NW,324,4.0,16.0,51,0.00,,,0.00,Wunderground v.1.15,2013-03-25 00:35:00,
2013-03-24 19:40:00,50.3,32.4,29.97,West,259,4.0,16.0,50,0.00,,,0.00,Wunderground v.1.15,2013-03-25 00:40:00,
2013-03-24 19:45:00,50.0,33.1,29.98,West,274,4.0,16.0,52,0.00,,,0.00,Wunderground v.1.15,2013-03-25 00:45:00,
2013-03-24 19:50:00,49.9,32.5,29.98,WNW,298,3.0,16.0,51,0.00,,,0.00,Wunderground v.1.15,2013-03-25 00:50:00,
2013-03-24 19:55:00,49.8,32.9,29.99,WNW,297,4.0,16.0,52,0.00,,,0.00,Wunderground v.1.15,2013-03-25 00:55:00,
2013-03-24 20:01:00,49.6,32.7,29.99,NW,310,3.0,16.0,52,0.00,,,0.00,Wunderground v.1.15,2013-03-25 01:01:00,
2013-03-24 20:06:00,49.5,33.1,29.99,North,6,3.0,16.0,53,0.00,,,0.00,Wunderground v.1.15,2013-03-25 01:06:00,
2013-03-24 20:12:00,49.3,32.9,30.00,West,273,3.0,16.0,53,0.00,,,0.00,Wunderground v.1.15,2013-03-25 01:12:00,
2013-03-24 20:17:00,49.1,33.2,30.00,NW,309,3.0,16.0,54,0.00,,,0.00,Wunderground v.1.15,2013-03-25 01:17:00,
2013-03-24 20:22:00,48.8,33.3,30.01,North,5,2.0,16.0,55,0.00,,,0.00,Wunderground v.1.15,2013-03-25 01:22:00,
2013-03-24 20:27:00,48.7,33.2,30.01,North,1,2.0,16.0,55,0.00,,,0.00,Wunderground v.1.15,2013-03-25 01:27:00,
2013-03-24 20:33:00,48.4,33.0,30.01,WNW,302,3.0,16.0,55,0.00,,,0.00,Wunderground v.1.15,2013-03-25 01:33:00,
2013-03-24 20:38:00,48.3,32.9,30.01,NW,305,3.0,16.0,55,0.00,,,0.00,Wunderground v.1.15,2013-03-25 01:38:00,
2013-03-24 20:43:00,48.1,33.1,30.02,NW,307,3.0,16.0,56,0.00,,,0.00,Wunderground v.1.15,2013-03-25 01:43:00,
2013-03-24 20:50:00,47.8,32.9,30.02,WNW,297,3.0,16.0,56,0.00,,,0.00,Wunderground v.1.15,2013-03-25 01:50:00,
2013-03-24 20:55:00,47.5,33.0,30.02,West,272,2.0,16.0,57,0.00,,,0.00,Wunderground v.1.15,2013-03-25 01:55:00,
2013-03-24 21:01:00,47.3,32.8,30.03,NW,307,2.0,16.0,57,0.00,,,0.00,Wunderground v.1.15,2013-03-25 02:01:00,
2013-03-24 21:07:00,47.0,33.0,30.03,NNW,345,1.0,16.0,58,0.00,,,0.00,Wunderground v.1.15,2013-03-25 02:07:00,
2013-03-24 21:12:00,46.8,32.4,30.03,NNW,340,2.0,16.0,57,0.00,,,0.00,Wunderground v.1.15,2013-03-25 02:12:00,
2013-03-24 21:17:00,46.7,32.7,30.04,WNW,297,2.0,16.0,58,0.00,,,0.00,Wunderground v.1.15,2013-03-25 02:17:00,
2013-03-24 21:23:00,46.5,32.5,30.04,WNW,295,2.0,16.0,58,0.00,,,0.00,Wunderground v.1.15,2013-03-25 02:23:00,
2013-03-24 21:29:00,46.3,32.7,30.05,NW,305,2.0,16.0,59,0.00,,,0.00,Wunderground v.1.15,2013-03-25 02:29:00,
2013-03-24 21:34:00,46.1,32.6,30.05,NNW,327,2.0,16.0,59,0.00,,,0.00,Wunderground v.1.15,2013-03-25 02:34:00,
2013-03-24 21:40:00,46.0,32.0,30.05,WNW,286,2.0,16.0,58,0.00,,,0.00,Wunderground v.1.15,2013-03-25 02:40:00,
2013-03-24 21:45:00,45.9,31.9,30.06,WNW,299,3.0,16.0,58,0.00,,,0.00,Wunderground v.1.15,2013-03-25 02:45:00,
2013-03-24 21:51:00,45.7,31.8,30.06,NNE,20,2.0,16.0,58,0.00,,,0.00,Wunderground v.1.15,2013-03-25 02:51:00,
2013-03-24 21:56:00,45.6,32.5,30.06,North,8,2.0,2.0,60,0.00,,,0.00,Wunderground v.1.15,2013-03-25 02:56:00,
2013-03-24 22:02:00,45.3,32.2,30.07,NW,306,2.0,16.0,60,0.00,,,0.00,Wunderground v.1.15,2013-03-25 03:02:00,
2013-03-24 22:08:00,44.9,32.3,30.07,NW,314,1.0,16.0,61,0.00,,,0.00,Wunderground v.1.15,2013-03-25 03:08:00,
2013-03-24 22:13:00,44.8,32.6,30.07,NNW,346,1.0,16.0,62,0.00,,,0.00,Wunderground v.1.15,2013-03-25 03:13:00,
2013-03-24 22:18:00,44.7,32.5,30.07,WNW,295,2.0,16.0,62,0.00,,,0.00,Wunderground v.1.15,2013-03-25 03:18:00,
2013-03-24 22:24:00,44.4,32.2,30.07,WNW,295,2.0,16.0,62,0.00,,,0.00,Wunderground v.1.15,2013-03-25 03:24:00,
2013-03-24 22:30:00,44.3,32.1,30.07,North,4,2.0,16.0,62,0.00,,,0.00,Wunderground v.1.15,2013-03-25 03:30:00,
2013-03-24 22:35:00,44.1,31.9,30.07,NNW,330,2.0,16.0,62,0.00,,,0.00,Wunderground v.1.15,2013-03-25 03:35:00,
2013-03-24 22:41:00,43.9,32.1,30.08,NW,315,1.0,16.0,63,0.00,,,0.00,Wunderground v.1.15,2013-03-25 03:41:00,
2013-03-24 22:46:00,43.7,31.9,30.08,NW,319,2.0,2.0,63,0.00,,,0.00,Wunderground v.1.15,2013-03-25 03:46:00,
2013-03-24 22:52:00,43.6,32.2,30.08,NW,315,1.0,16.0,64,0.00,,,0.00,Wunderground v.1.15,2013-03-25 03:52:00,
2013-03-24 22:57:00,43.4,32.0,30.08,WNW,288,2.0,16.0,64,0.00,,,0.00,Wunderground v.1.15,2013-03-25 03:57:00,
2013-03-24 23:00:00,43.3,31.9,30.09,West,262,2.0,16.0,64,0.00,,,0.00,Wunderground v.1.15,2013-03-25 04:00:00,
2013-03-24 23:01:00,43.3,31.9,30.08,WNW,300,2.0,16.0,64,0.00,,,0.00,Wunderground v.1.15,2013-03-25 04:01:00,
2013-03-24 23:06:00,43.2,32.2,30.08,NW,309,1.0,1.0,65,0.00,,,0.00,Wunderground v.1.15,2013-03-25 04:06:00,
2013-03-24 23:08:00,43.1,31.7,30.08,North,352,1.0,16.0,64,0.00,,,0.00,Wunderground v.1.15,2013-03-25 04:08:00,
2013-03-24 23:13:00,43.0,32.0,30.08,NW,319,2.0,16.0,65,0.00,,,0.00,Wunderground v.1.15,2013-03-25 04:13:00,
2013-03-24 23:15:00,43.0,32.0,30.09,WNW,285,2.0,16.0,65,0.00,,,0.00,Wunderground v.1.15,2013-03-25 04:15:00,
2013-03-24 23:20:00,42.8,32.2,30.09,NNE,18,2.0,16.0,66,0.00,,,0.00,Wunderground v.1.15,2013-03-25 04:20:00,
2013-03-24 23:27:00,42.6,32.0,30.10,WNW,293,1.0,16.0,66,0.00,,,0.00,Wunderground v.1.15,2013-03-25 04:27:00,
2013-03-24 23:33:00,42.4,31.8,30.10,NNW,340,1.0,16.0,66,0.00,,,0.00,Wunderground v.1.15,2013-03-25 04:33:00,
2013-03-24 23:38:00,42.3,32.1,30.10,SW,232,1.0,16.0,67,0.00,,,0.00,Wunderground v.1.15,2013-03-25 04:38:00,
2013-03-24 23:43:00,42.1,31.9,30.10,North,5,1.0,16.0,67,0.00,,,0.00,Wunderground v.1.15,2013-03-25 04:43:00,
2013-03-24 23:48:00,42.0,31.8,30.10,NW,305,2.0,16.0,67,0.00,,,0.00,Wunderground v.1.15,2013-03-25 04:48:00,
2013-03-24 23:54:00,41.8,32.0,30.10,NW,305,2.0,16.0,68,0.00,,,0.00,Wunderground v.1.15,2013-03-25 04:54:00,